Location: Albany
(35.0170°S, 117.8920°E)
Time: 17:34:48
(UTC+08:00)

Transit 2A - Pass Details

Date: 29 January 2021
Orbit: 601 x 958 km, 66.7° (Epoch: 02 March)

Event Time Altitude Azimuth Distance (km) Brightness Sun altitude
Rises 22:13:22 0° 192° (SSW) 3,545 10.4 -29.1°
Reaches altitude 10° 22:16:50 10° 172° (S) 2,648 9.3 -29.5°
Maximum altitude 22:20:49 17° 132° (SE) 2,193 8.4 -29.9°
Enters shadow 22:21:49 17° 121° (ESE) 2,231 8.3 -30.0°
Drops below altitude 10° 22:24:53 10° 92° (E) 2,698 - -30.4°
Sets 22:28:26 0° 73° (ENE) 3,639 - -30.8°
